Back to catalog

STARLINK-5276

AliveCommunicationsVLEO
NORAD 55399·PAYLOAD·🇺🇸 United States

Launched Jan 31, 2023 from Vandenberg Space Force Base

Loading…

Next Passes (next 24 hours)

TLE

FreshSource: CelesTrak SupGP

Epoch: Sep 14, 2026, 21:38 UTC

1 55399C 23014J   26257.90187500  .00013077  00000+0  10962-2 0  2577
2 55399  69.9996 307.2983 0003679 269.0117 311.1771 14.98312239    18

Track STARLINK-5276 in real time with AllMySat

Download on the App Store